Location: Unspecified
(41.2830°S, 0.0000°E)
Time: 10:01:25
(UTC+00:00)

Tiangong 2 - Visible Passes

Search period start: 26 May 2019 00:00
Search period end: 05 June 2019 00:00
Orbit: 379 x 387 km, 42.8° (Epoch: 26 May)

Date Brightness Start Highest point End Pass type
(mag) Time Alt. Az. Time Alt. Az. Time Alt. Az.
26 May 3.4 05:05:44 18° NNE 05:06:23 19° NNE 05:08:47 10° E visible
26 May 1.3 06:39:34 10° WNW 06:42:47 78° NNE 06:46:02 10° ESE visible
27 May 1.8 05:41:17 26° NW 05:42:47 51° NNE 05:45:57 10° E visible
28 May 3.9 04:44:26 20° ENE 04:44:26 20° ENE 04:45:45 10° E visible
28 May 1.1 06:16:38 13° W 06:19:24 80° SSW 06:22:39 10° ESE visible
29 May 1.4 05:19:39 67° ENE 05:19:39 67° ENE 05:22:35 10° ESE visible
30 May 1.1 05:54:45 33° W 05:56:02 67° S 05:59:15 10° ESE visible
31 May 3.3 04:57:35 26° ESE 04:57:35 26° ESE 04:59:10 10° ESE visible
31 May 1.2 06:29:47 12° WSW 06:32:46 69° S 06:36:00 10° E visible
01 Jun 1.1 05:32:34 63° S 05:32:39 64° S 05:35:52 10° E visible
02 Jun 4.5 04:35:20 13° ESE 04:35:20 13° ESE 04:35:44 10° ESE visible
02 Jun 1.1 06:07:30 23° WSW 06:09:21 83° S 06:12:36 10° E visible
03 Jun 2.5 05:10:15 39° ESE 05:10:15 39° ESE 05:12:28 10° E visible
03 Jun 1.8 06:42:49 10° W 06:45:56 46° NNW 06:49:02 10° NE visible
04 Jun 1.1 05:45:12 50° W 05:45:53 73° NNW 05:49:06 10° ENE visible
